Date,TemperatureHighF,TemperatureAvgF,TemperatureLowF,DewpointHighF,DewpointAvgF,DewpointLowF,HumidityHigh,HumidityAvg,HumidityLow,PressureMaxIn,PressureMinIn,WindSpeedMaxMPH,WindSpeedAvgMPH,GustSpeedMaxMPH,PrecipitationSumIn
2012-12-1,43.1,37.7,31.9,41.4,35.3,30.3,96,91,82,30.16,29.76,18,4,18,0.00
2012-12-2,42.0,36.3,34.5,40.7,34.9,32.8,97,95,92,30.03,29.82,17,2,18,0.00
2012-12-3,58.6,47.4,38.3,53.8,43.7,32.0,97,87,72,29.92,29.54,28,7,29,0.00
2012-12-4,40.4,31.1,19.8,31.8,19.8,10.7,73,63,53,30.42,29.88,26,7,26,0.00
2012-12-5,34.3,24.6,0.0,19.8,13.4,9.0,84,63,49,30.46,30.03,21,5,24,0.00
2012-12-6,44.2,37.4,30.3,37.9,30.1,20.2,90,75,56,30.02,29.79,20,6,20,0.00
2012-12-7,30.1,26.6,22.2,24.4,20.9,18.6,91,79,68,30.07,29.97,10,3,10,0.00
2012-12-8,32.7,26.7,22.0,24.9,22.3,20.0,92,84,71,30.11,30.05,11,1,11,0.00
2012-12-9,29.4,27.7,25.9,26.7,25.3,22.8,95,91,77,30.12,29.81,16,6,16,0.00
2012-12-10,25.9,18.3,14.1,24.7,16.4,12.0,95,92,89,29.96,29.82,12,3,12,0.00
2012-12-11,21.1,16.3,8.2,18.3,13.8,5.3,92,90,86,30.10,29.86,15,3,16,0.00
2012-12-12,42.4,27.5,7.4,29.9,20.6,4.8,94,77,51,30.12,29.95,19,3,20,0.00
2012-12-13,39.4,33.8,20.0,23.4,21.5,16.9,89,62,50,30.15,29.98,17,2,17,0.00
2012-12-14,39.5,28.0,17.1,32.0,22.7,14.7,93,81,63,30.18,29.91,16,4,16,0.00
2012-12-15,38.1,37.2,35.9,36.8,35.2,32.0,97,92,83,29.91,29.51,16,4,17,0.00
2012-12-16,36.2,29.9,21.3,35.3,28.6,19.3,97,95,92,29.79,29.51,17,6,17,0.00
2012-12-17,21.8,20.9,19.8,19.4,17.9,16.6,93,88,84,29.81,29.75,15,2,15,0.00
2012-12-18,26.5,22.6,19.4,21.7,19.8,17.4,93,89,80,29.88,29.69,9,1,9,0.00
2012-12-19,31.2,28.6,24.2,26.9,25.5,21.7,92,88,83,30.05,29.88,8,1,8,0.00
2012-12-20,29.0,25.2,16.2,26.6,22.5,11.4,95,89,80,29.97,29.70,27,8,27,0.00
2012-12-21,20.9,13.5,7.1,11.2,7.5,4.0,87,77,64,30.30,29.94,17,4,17,0.00
2012-12-22,28.6,14.2,2.3,12.6,7.3,-0.8,90,76,49,30.26,30.02,9,1,10,0.00
2012-12-23,20.0,16.3,10.9,13.5,11.2,7.7,88,80,72,30.16,30.05,15,3,15,0.00
2012-12-24,20.6,15.0,6.6,13.1,8.5,0.1,84,75,67,30.29,30.03,11,3,12,0.00
2012-12-25,10.5,4.3,-1.6,2.0,-0.9,-4.8,87,79,67,30.52,30.29,8,1,8,0.00
2012-12-26,18.6,7.1,-0.6,9.5,2.4,-3.8,88,81,66,30.47,30.31,9,1,9,0.00
2012-12-27,22.3,12.4,-0.3,14.0,7.1,-3.7,88,79,69,30.34,30.21,9,1,9,0.00
2012-12-28,21.8,18.8,15.6,18.7,15.8,12.9,91,88,82,30.21,30.02,10,2,10,0.00
2012-12-29,19.4,15.7,10.9,16.7,12.1,7.0,90,86,80,30.22,30.01,16,4,16,0.00
2012-12-30,22.0,12.8,1.2,16.5,7.9,-2.0,88,81,72,30.28,29.95,13,2,16,0.00
2012-12-31,19.0,11.6,-0.8,15.8,5.8,-5.0,88,77,66,30.30,29.95,19,5,19,0.00